Location: Unspecified
(44.0704°N, 88.6889°W)
Time: 08:28:50
(UTC+02:00)

Transit 2A - Pass Details

Date: 18 June 2019
Orbit: 594 x 965 km, 66.7° (Epoch: 17 July)

Event Time Altitude Azimuth Distance (km) Brightness Sun altitude
Rises 16:42:22 0° 332° (NNW) 3,507 9.1 45.6°
Reaches altitude 10° 16:45:17 10° 343° (NNW) 2,508 8.6 46.1°
Maximum altitude 16:50:22 31° 44° (NE) 1,393 8.1 47.0°
Drops below altitude 10° 16:54:59 10° 106° (ESE) 2,274 9.4 47.8°
Sets 16:57:30 0° 117° (ESE) 3,131 9.8 48.2°
